Tracking 31027 objects as of 19-Jul-2025
HD Live streaming from Space Station
objects crossing your sky now

SL-16 DEB

Track SL-16 DEB now!
10-day predictions


NORAD ID: 39303
Int'l Code: 1992-093JU
Perigee: 807.8 km
Apogee: 893.3 km
Inclination: 70.9 °
Period: 101.8 minutes
Semi major axis: 7221 km
RCS: 0.0004 m2 (small)
Launch date: December 25, 1992
Source: Commonwealth of Independent States (former USSR) (CIS)
Launch site: TYURATAM MISSILE AND SPACE COMPLEX (TTMTR)

Note: This is SATELLITE DEBRIS
Your satellite tracking list
BELINTERSAT 1
Track 1 satellite(s)




NASA's NSSDC Master Catalog

Two Line Element Set (TLE):
1 39303U 92093JU  25199.41480930  .00000275  00000-0  16549-3 0  9998
2 39303  70.9054 251.7139 0059205 291.4674  68.0140 14.14672546605120
Source of the keplerian elements: AFSPC